Accueil
METAR-TAF:

METAR-TAF

Aéroports :

Pocono Mountains Municipal Airport

Mount Pocono, Pennsylvanie, États-Unis

latitude: 41-08-20N, longitude: 075-23-46W, altitude: 584 m

Observation

Le bulletin a été fait il y a 25 minutes, à 18:53 UTC
Vent 4 kt de direction variable avec des rafales jusqu'à 14 kt
Température 27°C
Humidité 62%
Pression 1018 hPa
Visibilité: 16.1 km
Ciel clair

METAR: KMPO 151853Z AUTO VRB04G14KT 10SM CLR 27/19 A3005 RMK AO2 SLP161 T02670194

Heure: 15:18 (19:18 UTC)


TAF: absent

Observations et prévisions météorologiques de plus de 4000 aéroports (messages METAR et TAF).

Les stations disponibles sont représentées par des disques jaunes et rouges sur la carte.

Passer la souris dessus pour voir le nom de la station.

Cliquer dessus pour voir les observations et prévisions météorologiques.

Pour changer de carte: cliquez sur les boutons verts avec une croix noire pour zoomer, sur le bouton vert avec un tiret pour effectuer un zoom arrière, ou sur les flèches vertes pour les cartes adjacentes.


METAR-TAF: